Location: Pinawa
(50.1500°N, 95.8830°W)
Time: 04:12:13
(UTC-05:00)

Amateur Radio Satellites - All Passes

Search period start: 23 July 2016 03:42
Search period end: 24 July 2016 03:42
Location: Pinawa, 50.1500°N, 95.8830°W

Satellite Date Start Highest point End Downlink Frequencies (MHz)
Time Altitude Azimuth
SWISSCUBE 23 Jul 03:43:16 03:47:23 28° 266° (W) 03:51:32 437.505
PCSat 23 Jul 03:45:42 03:49:52 22° 28° (NNE) 03:54:00 145.827
MOZHAYETS 4 23 Jul 03:50:31 03:55:01 52° 70° (ENE) 03:59:32
KKS-1 23 Jul 03:51:13 03:55:32 53° 70° (ENE) 03:59:53 437.445
GONETS M04 23 Jul 03:59:31 04:08:20 81° 263° (W) 04:17:09
BEESAT 23 Jul 04:06:00 04:09:32 20° 269° (W) 04:13:06 436.000
AO-7 23 Jul 04:06:46 04:13:44 28° 92° (E) 04:20:37 29.400- 29.500
Cosmos 2499 23 Jul 04:07:17 04:15:32 87° 81° (E) 04:23:05 435.465 / 435.565
ITAMSAT 1 23 Jul 04:19:05 04:24:16 60° 102° (ESE) 04:29:23 435.822/435.867
ITUPSAT 1 23 Jul 04:27:11 04:29:42 14° 273° (W) 04:32:12 437.325
Oscar 19 23 Jul 04:35:27 04:39:24 23° 302° (WNW) 04:43:21 437.125/150
AIST 2 23 Jul 04:38:37 04:40:40 13° 16° (NNE) 04:42:44 435.215
STARS 23 Jul 04:42:58 04:47:22 87° 74° (ENE) 04:51:49 437.465
ISS 23 Jul 04:48:59 04:52:14 68° 201° (SSW) 04:55:28 145.825
BEESAT 2 23 Jul 04:55:38 04:59:38 71° 47° (NE) 05:03:38 435.950
DANDE 23 Jul 04:56:05 05:00:54 27° 95° (E) 05:04:45 436.750
CUBESAT XI-V 23 Jul 04:57:18 05:01:29 35° 66° (ENE) 05:05:39 437.345
BEESAT 3 23 Jul 04:59:16 05:03:13 65° 233° (SW) 05:07:08 437.485
HORYU 2 23 Jul 05:04:04 05:05:24 11° 86° (E) 05:06:44 437.375
Gurwin Techsat 1B 23 Jul 05:17:26 05:21:28 22° 303° (WNW) 05:25:29 435.225
CUSAT 1 23 Jul 05:18:49 05:23:14 89° 283° (WNW) 05:26:37 437.405
PCSat 23 Jul 05:28:48 05:34:15 69° 51° (NE) 05:39:39 145.827
MOZHAYETS 4 23 Jul 05:28:54 05:32:30 22° 269° (W) 05:36:06
KKS-1 23 Jul 05:29:07 05:32:25 20° 268° (W) 05:35:45 437.445
O/OREOS (USA 219) 23 Jul 05:30:00 05:30:50 10° 33° (NNE) 05:31:41 437.305
GONETS M04 23 Jul 05:57:52 06:03:47 21° 286° (WNW) 06:09:44
AO-7 23 Jul 05:58:58 06:07:23 80° 293° (WNW) 06:15:42 29.400- 29.500
ITAMSAT 1 23 Jul 05:59:12 06:03:23 25° 301° (WNW) 06:07:32 435.822/435.867
NOAA 15 23 Jul 06:01:31 06:03:00 11° 84° (E) 06:04:27 137.62
Cosmos 2499 23 Jul 06:01:41 06:07:30 22° 284° (WNW) 06:13:01 435.465 / 435.565
STRAND 1 23 Jul 06:10:57 06:14:34 20° 56° (NE) 06:18:10 437.568
AIST 2 23 Jul 06:16:28 06:20:19 35° 39° (NE) 06:24:10 435.215
STARS 23 Jul 06:22:37 06:24:23 12° 273° (W) 06:26:09 437.465
ISS 23 Jul 06:26:02 06:28:14 17° 220° (SW) 06:30:25 145.825
BEESAT 2 23 Jul 06:34:30 06:37:01 16° 247° (WSW) 06:39:31 435.950
CUBESAT XI-V 23 Jul 06:34:42 06:38:52 33° 265° (W) 06:43:03 437.345
DANDE 23 Jul 06:38:07 06:43:38 44° 286° (WNW) 06:47:49 436.750
HORYU 2 23 Jul 06:38:09 06:42:41 84° 101° (E) 06:47:11 437.375
Cubesat XI-IV 23 Jul 06:38:38 06:42:21 19° 89° (E) 06:46:02 437.490
GOMX 1 23 Jul 06:40:26 06:43:26 16° 88° (E) 06:46:31 467.674
RS-15 23 Jul 06:48:50 06:57:05 24° 98° (E) 07:05:34 29.354- 29.394
BRITE-PL 23 Jul 06:51:23 06:55:37 35° 97° (E) 07:00:09 437.365/2234.400
DOVE 4 23 Jul 06:58:05 06:59:57 12° 85° (E) 07:01:49 437.250
NOAA 18 23 Jul 06:59:53 07:04:36 27° 94° (E) 07:09:16 137.9125
CUTE-I 23 Jul 07:03:14 07:07:53 29° 94° (E) 07:12:30 437.470
O/OREOS (USA 219) 23 Jul 07:07:07 07:11:29 44° 56° (NE) 07:15:49 437.305
PCSat 23 Jul 07:12:56 07:17:10 24° 251° (WSW) 07:21:24 145.827
Cosmos 2491 23 Jul 07:30:57 07:36:34 18° 49° (NE) 07:42:08 435.465 / 435.565
LilacSat-2 23 Jul 07:31:40 07:35:28 49° 99° (E) 07:39:14 437.200
NOAA 15 23 Jul 07:38:28 07:43:45 70° 103° (ESE) 07:48:59 137.62
CINEMA 3 23 Jul 07:44:59 07:45:27 10° 83° (E) 07:45:56 145.822/145.860
STRAND 1 23 Jul 07:48:00 07:53:10 79° 255° (WSW) 07:58:22 437.568
AO-7 23 Jul 07:52:34 07:59:03 26° 316° (NW) 08:05:30 29.400- 29.500
AIST 2 23 Jul 07:54:57 07:58:52 39° 239° (WSW) 08:02:46 435.215
HORYU 2 23 Jul 08:16:02 08:18:39 15° 304° (NW) 08:21:15 437.375
GOMX 1 23 Jul 08:17:11 08:22:01 81° 285° (WNW) 08:27:11 467.674
Cubesat XI-IV 23 Jul 08:17:39 08:23:02 76° 288° (WNW) 08:28:22 437.490
PRISM 23 Jul 08:20:14 08:23:56 34° 66° (ENE) 08:27:38 437.425
BRITE-PL 23 Jul 08:30:02 08:34:06 33° 293° (WNW) 08:38:25 437.365/2234.400
HO-68 23 Jul 08:32:51 08:38:58 29° 92° (E) 08:45:02 435.675
DOVE 4 23 Jul 08:33:24 08:38:24 75° 104° (ESE) 08:43:36 437.250
NOAA 18 23 Jul 08:40:08 08:45:35 55° 293° (WNW) 08:50:57 137.9125
CANX-2 23 Jul 08:41:55 08:45:31 26° 94° (E) 08:49:04 2200.000
CUTE-I 23 Jul 08:43:01 08:48:10 49° 293° (WNW) 08:53:17 437.470
O/OREOS (USA 219) 23 Jul 08:46:55 08:50:40 26° 255° (WSW) 08:54:26 437.305
SO-50 23 Jul 08:52:02 08:53:37 11° 108° (ESE) 08:55:11 436.795
RS-15 23 Jul 08:55:53 09:07:23 76° 123° (ESE) 09:19:32 29.354- 29.394
CUTE 1.7 + AOD 2 23 Jul 08:56:09 08:59:57 31° 95° (E) 09:03:43 437.475
AAUSAT CUBESAT 2 23 Jul 09:02:29 09:05:05 16° 89° (E) 09:07:39 437.432
LilacSat-2 23 Jul 09:06:44 09:09:27 18° 298° (WNW) 09:12:10 437.200
UWE-3 23 Jul 09:08:57 09:11:23 14° 86° (E) 09:13:49 435.000/436.395/437.385
YUBILEINY 23 Jul 09:10:11 09:15:45 19° 73° (ENE) 09:21:20 435.215
CINEMA 3 23 Jul 09:18:31 09:23:30 67° 101° (ESE) 09:28:31 145.822/145.860
NOAA 15 23 Jul 09:19:05 09:23:03 22° 303° (WNW) 09:27:01 137.62
CUBEBUG 2 23 Jul 09:20:17 09:24:13 25° 92° (E) 09:28:06 437.445
ZACube-1 23 Jul 09:20:34 09:22:14 12° 85° (E) 09:23:52 437.345
FUNcube-1 23 Jul 09:22:23 09:23:52 11° 85° (E) 09:25:20 145.935
TIGRISAT 23 Jul 09:25:35 09:28:48 19° 58° (ENE) 09:32:02 435.000
Cosmos 2491 23 Jul 09:26:50 09:35:32 64° 75° (ENE) 09:44:13 435.465 / 435.565
STRAND 1 23 Jul 09:31:03 09:33:12 12° 275° (W) 09:35:21 437.568
UNISAT 6 23 Jul 09:39:40 09:43:28 25° 62° (ENE) 09:47:18 437.425
SEEDS 23 Jul 09:43:33 09:47:46 69° 103° (ESE) 09:51:54 437.485
AO-7 23 Jul 09:47:39 09:48:56 10° 342° (NNW) 09:50:13 29.400- 29.500
PRISM 23 Jul 09:55:50 09:59:18 26° 265° (W) 10:02:48 437.425
Cosmos 2504 23 Jul 09:56:35 09:59:41 12° 67° (ENE) 10:02:46 435.465 / 435.565
GOMX 1 23 Jul 09:56:55 09:59:29 14° 303° (WNW) 10:02:07 467.674
Cubesat XI-IV 23 Jul 09:59:12 10:02:16 16° 308° (NW) 10:05:19 437.490
COMPASS 1 23 Jul 10:03:54 10:08:04 81° 102° (ESE) 10:12:12 437.405
DELFI C3 23 Jul 10:03:56 10:05:46 13° 88° (E) 10:07:34 145.870
Oscar 11 23 Jul 10:09:22 10:13:18 32° 96° (E) 10:17:11 145.826/435.025
DOVE 4 23 Jul 10:12:05 10:15:37 20° 301° (WNW) 10:19:14 437.250
NANOSAT C BR1 23 Jul 10:15:54 10:16:35 10° 53° (NE) 10:17:16 145.865
ANTELSAT 23 Jul 10:17:27 10:21:55 51° 70° (ENE) 10:26:30 437.575/2403.000
CANX-2 23 Jul 10:17:34 10:21:29 36° 292° (WNW) 10:25:21 2200.000
HO-68 23 Jul 10:20:06 10:27:17 70° 293° (WNW) 10:34:25 435.675
DUCHIFAT 1 23 Jul 10:21:50 10:23:04 11° 54° (NE) 10:24:19 145.980
NOAA 18 23 Jul 10:22:56 10:25:06 12° 313° (NW) 10:27:15 137.9125
CUTE-I 23 Jul 10:26:07 10:27:01 10° 314° (NW) 10:27:54 437.470
SO-50 23 Jul 10:28:24 10:33:14 67° 127° (SE) 10:38:03 436.795
CUTE 1.7 + AOD 2 23 Jul 10:32:03 10:35:46 31° 294° (WNW) 10:39:28 437.475
QB50P1 23 Jul 10:33:32 10:36:03 16° 58° (ENE) 10:38:37 145.935-145.965
AAUSAT CUBESAT 2 23 Jul 10:36:53 10:40:57 58° 288° (WNW) 10:44:59 437.432
POPSAT HIP 1 23 Jul 10:39:14 10:42:01 17° 59° (ENE) 10:44:50 437.405
UWE-3 23 Jul 10:43:47 10:48:30 83° 285° (WNW) 10:53:05 435.000/436.395/437.385
ZACube-1 23 Jul 10:54:38 10:59:15 87° 104° (ESE) 11:03:45 437.345
BUGSAT 1 23 Jul 10:55:16 10:56:22 11° 54° (NE) 10:57:29 437.445
FUNcube-1 23 Jul 10:56:16 11:00:51 85° 101° (E) 11:05:20 145.935
CINEMA 3 23 Jul 10:56:27 11:00:11 22° 300° (WNW) 11:03:57 145.822/145.860
CUBEBUG 2 23 Jul 10:56:29 11:01:04 48° 291° (WNW) 11:05:35 437.445
QB50P2 23 Jul 10:58:03 11:01:36 26° 64° (ENE) 11:05:10 145.880/145.840
M-CUBED/EXP-1 PRIME 23 Jul 10:59:54 11:04:08 34° 102° (ESE) 11:08:25 437.505
TIGRISAT 23 Jul 11:00:22 11:04:58 70° 258° (WSW) 11:09:41 435.000
POLYITAN 1 23 Jul 11:00:39 11:04:14 27° 64° (ENE) 11:07:50 437.675
YUBILEINY 23 Jul 11:02:16 11:11:01 76° 95° (E) 11:19:51 435.215
RS-15 23 Jul 11:09:23 11:20:51 52° 332° (NNW) 11:32:50 29.354- 29.394
HUMSAT D 23 Jul 11:12:50 11:16:42 33° 96° (E) 11:20:30 437.325/437.525
UNISAT 6 23 Jul 11:15:26 11:19:54 49° 261° (W) 11:24:29 437.425
SEEDS 23 Jul 11:20:25 11:22:59 16° 301° (WNW) 11:25:31 437.485
Cosmos 2491 23 Jul 11:24:17 11:31:54 35° 277° (W) 11:39:32 435.465 / 435.565
AUBIESAT-1 23 Jul 11:29:49 11:34:19 54° 106° (ESE) 11:38:52 437.475
DELFI C3 23 Jul 11:37:10 11:41:06 69° 287° (WNW) 11:45:00 145.870
COMPASS 1 23 Jul 11:40:56 11:43:04 14° 302° (WNW) 11:45:12 437.405
Cosmos 2504 23 Jul 11:42:30 11:50:58 53° 89° (E) 11:59:26 435.465 / 435.565
Oscar 11 23 Jul 11:45:34 11:49:24 31° 294° (WNW) 11:53:13 145.826/435.025
NANOSAT C BR1 23 Jul 11:47:18 11:51:30 68° 73° (ENE) 11:55:45 145.865
DUCHIFAT 1 23 Jul 11:53:48 11:58:00 74° 73° (ENE) 12:02:15 145.980
ANTELSAT 23 Jul 11:55:16 11:58:56 23° 269° (W) 12:02:38 437.575/2403.000
AISAT 23 Jul 11:58:43 12:00:48 13° 88° (E) 12:02:55 437.250
JAS-2 23 Jul 11:59:01 12:04:31 38° 65° (ENE) 12:09:33 435.910
QB50P1 23 Jul 12:07:05 12:11:19 75° 256° (WSW) 12:15:36 145.935-145.965
HO-68 23 Jul 12:08:59 12:13:50 20° 315° (NW) 12:18:42 435.675
SO-50 23 Jul 12:09:49 12:14:07 30° 327° (NNW) 12:18:23 436.795
POPSAT HIP 1 23 Jul 12:13:08 12:17:21 66° 258° (WSW) 12:21:38 437.405
ESTCUBE 1 23 Jul 12:13:57 12:17:49 28° 94° (E) 12:21:41 437.505/2401.250
DX 1 23 Jul 12:14:15 12:16:15 13° 88° (E) 12:18:15 434.975-435.025
UWE-3 23 Jul 12:21:49 12:24:13 14° 305° (NW) 12:26:35 435.000/436.395/437.385
BUGSAT 1 23 Jul 12:26:56 12:31:00 76° 74° (ENE) 12:35:09 437.445
ZACube-1 23 Jul 12:32:18 12:34:53 15° 303° (WNW) 12:37:27 437.345
QB50P2 23 Jul 12:33:16 12:37:15 39° 262° (W) 12:41:18 145.880/145.840
FUNcube-1 23 Jul 12:33:50 12:36:28 15° 303° (WNW) 12:39:03 145.935
M-CUBED/EXP-1 PRIME 23 Jul 12:34:25 12:38:38 37° 299° (WNW) 12:42:57 437.505
UKube-1 23 Jul 12:35:43 12:38:32 17° 90° (E) 12:41:20 .
POLYITAN 1 23 Jul 12:35:55 12:39:54 38° 263° (W) 12:43:57 437.675
50 SAT 23 Jul 12:37:30 12:40:37 26° 95° (E) 12:43:41 437.505
Oscar 19 23 Jul 12:38:54 12:43:04 26° 60° (ENE) 12:47:15 437.125/150
HUMSAT D 23 Jul 12:48:35 12:52:16 29° 295° (WNW) 12:55:54 437.325/437.525
VELOX 1 23 Jul 12:49:15 12:53:22 36° 97° (E) 12:57:29 145.980
YUBILEINY 23 Jul 13:01:10 13:08:46 31° 299° (WNW) 13:16:27 435.215
CUBEBUG 1 23 Jul 13:02:00 13:06:20 55° 101° (E) 13:10:38 437.445
AUBIESAT-1 23 Jul 13:04:46 13:08:30 25° 304° (WNW) 13:12:17 437.475
SPROUT 23 Jul 13:16:52 13:20:51 34° 96° (E) 13:24:48 437.525
AO-7 23 Jul 13:21:52 13:27:22 20° 37° (NE) 13:32:52 29.400- 29.500
Gurwin Techsat 1B 23 Jul 13:23:37 13:28:11 30° 61° (ENE) 13:32:47 435.225
NANOSAT C BR1 23 Jul 13:25:17 13:27:43 15° 271° (W) 13:30:09 145.865
RS-15 23 Jul 13:25:24 13:36:39 41° 5° (N) 13:48:09 29.354- 29.394
DUCHIFAT 1 23 Jul 13:32:05 13:34:14 14° 272° (W) 13:36:23 145.980
AISAT 23 Jul 13:33:25 13:37:53 83° 285° (WNW) 13:42:21 437.250
Cosmos 2504 23 Jul 13:36:06 13:44:33 46° 292° (WNW) 13:52:59 435.465 / 435.565
JAS-2 23 Jul 13:43:55 13:49:39 40° 262° (W) 13:54:51 435.910
DX 1 23 Jul 13:48:39 13:53:02 82° 286° (WNW) 13:57:24 434.975-435.025
ESTCUBE 1 23 Jul 13:50:34 13:54:44 38° 293° (WNW) 13:58:53 437.505/2401.250
SO-50 23 Jul 13:53:14 13:56:03 15° 351° (N) 13:58:51 436.795
AIST 1 23 Jul 14:01:46 14:05:24 28° 89° (E) 14:09:03
ITAMSAT 1 23 Jul 14:03:38 14:07:52 25° 59° (ENE) 14:12:06 435.822/435.867
BUGSAT 1 23 Jul 14:05:10 14:06:57 12° 273° (W) 14:08:45 437.445
UKube-1 23 Jul 14:10:42 14:15:00 62° 289° (WNW) 14:19:16 .
50 SAT 23 Jul 14:11:08 14:14:14 27° 294° (WNW) 14:17:18 437.505
Oscar 19 23 Jul 14:17:04 14:22:05 55° 259° (W) 14:27:09 437.125/150
BEESAT 23 Jul 14:24:50 14:25:46 10° 85° (E) 14:26:42 436.000
AO-85 23 Jul 14:25:50 14:27:53 12° 108° (ESE) 14:29:54 145.980
VELOX 1 23 Jul 14:25:54 14:29:46 30° 296° (WNW) 14:33:37 145.980
TISAT 1 23 Jul 14:28:09 14:32:17 47° 99° (E) 14:36:24 437.305
CUBEBUG 1 23 Jul 14:39:01 14:42:17 21° 299° (WNW) 14:45:32 437.445
ITUPSAT 1 23 Jul 14:43:23 14:46:17 16° 88° (E) 14:49:12 437.325
SPROUT 23 Jul 14:52:58 14:56:44 30° 295° (WNW) 15:00:29 437.525
Cosmos 2499 23 Jul 14:59:49 15:04:39 16° 71° (ENE) 15:09:25 435.465 / 435.565
Gurwin Techsat 1B 23 Jul 15:02:48 15:07:56 49° 261° (W) 15:13:08 435.225
AO-7 23 Jul 15:10:24 15:18:31 58° 61° (ENE) 15:26:41 29.400- 29.500
AISAT 23 Jul 15:11:36 15:13:41 13° 305° (NW) 15:15:46 437.250
GONETS M04 23 Jul 15:11:59 15:18:39 26° 78° (ENE) 15:25:21
DX 1 23 Jul 15:26:36 15:28:32 13° 305° (NW) 15:30:28 434.975-435.025
DANDE 23 Jul 15:30:24 15:31:35 12° 64° (ENE) 15:32:43 436.750
SO-50 23 Jul 15:35:15 15:38:22 17° 16° (NNE) 15:41:27 436.795
Cosmos 2504 23 Jul 15:36:39 15:40:42 14° 318° (NW) 15:44:44 435.465 / 435.565
SWISSCUBE 23 Jul 15:37:46 15:42:27 52° 100° (E) 15:47:05 437.505
AIST 1 23 Jul 15:39:06 15:42:56 32° 289° (WNW) 15:46:48
RS-15 23 Jul 15:39:47 15:52:01 63° 37° (NE) 16:04:15 29.354- 29.394
ITAMSAT 1 23 Jul 15:41:50 15:46:59 59° 258° (WSW) 15:52:11 435.822/435.867
CUSAT 1 23 Jul 15:46:26 15:49:06 82° 80° (E) 15:52:08 437.405
BEESAT 23 Jul 15:59:36 16:04:25 75° 104° (ESE) 16:09:10 436.000
AO-85 23 Jul 16:02:16 16:07:33 65° 125° (SE) 16:12:35 145.980
TISAT 1 23 Jul 16:04:22 16:07:41 22° 298° (WNW) 16:11:00 437.305
HORYU 2 23 Jul 16:05:27 16:08:44 20° 59° (ENE) 16:12:02 437.375
ITUPSAT 1 23 Jul 16:19:55 16:24:43 76° 287° (WNW) 16:29:28 437.325
STARS 23 Jul 16:29:44 16:31:20 12° 87° (E) 16:32:56 437.465
Cubesat XI-IV 23 Jul 16:30:28 16:30:58 10° 46° (NE) 16:31:29 437.490
Cosmos 2499 23 Jul 16:47:22 16:56:07 65° 93° (E) 17:04:41 435.465 / 435.565
CUTE-I 23 Jul 16:52:40 16:55:37 15° 51° (NE) 16:58:34 437.470
NOAA 18 23 Jul 16:52:55 16:56:17 17° 51° (NE) 16:59:41 137.9125
AO-7 23 Jul 17:03:49 17:11:36 42° 262° (W) 17:19:27 29.400- 29.500
GONETS M04 23 Jul 17:05:45 17:14:27 84° 279° (W) 17:23:16
DANDE 23 Jul 17:12:19 17:14:28 22° 266° (W) 17:16:33 436.750
KKS-1 23 Jul 17:13:46 17:18:11 55° 101° (E) 17:22:36 437.445
SO-50 23 Jul 17:15:33 17:20:04 42° 39° (NE) 17:24:25 436.795
SWISSCUBE 23 Jul 17:16:07 17:19:58 25° 299° (WNW) 17:23:46 437.505
MOZHAYETS 4 23 Jul 17:17:45 17:22:20 65° 102° (ESE) 17:26:52
NOAA 15 23 Jul 17:24:35 17:29:06 30° 61° (ENE) 17:33:38 137.62
HO-68 23 Jul 17:25:15 17:27:05 11° 34° (NNE) 17:28:55 435.675
BEESAT 23 Jul 17:38:25 17:41:41 18° 303° (WNW) 17:44:54 436.000
HORYU 2 23 Jul 17:40:28 17:44:54 60° 258° (WSW) 17:49:23 437.375
AO-85 23 Jul 17:43:39 17:48:24 33° 325° (NW) 17:52:53 145.980
RS-15 23 Jul 17:52:46 18:04:40 58° 244° (WSW) 18:16:28 29.354- 29.394
GOMX 1 23 Jul 17:53:33 17:56:51 23° 62° (ENE) 18:00:17 467.674
ITUPSAT 1 23 Jul 17:59:29 18:01:46 13° 307° (NW) 18:04:03 437.325
STARS 23 Jul 18:03:53 18:08:22 89° 107° (ESE) 18:12:49 437.465
Cubesat XI-IV 23 Jul 18:04:41 18:09:49 47° 67° (ENE) 18:14:58 437.490
BRITE-PL 23 Jul 18:07:21 18:11:27 62° 72° (ENE) 18:15:35 437.365/2234.400
DOVE 4 23 Jul 18:08:02 18:10:52 17° 58° (ENE) 18:13:48 437.250
LilacSat-2 23 Jul 18:17:48 18:21:31 47° 71° (ENE) 18:25:17 437.200
CUBESAT XI-V 23 Jul 18:25:52 18:30:17 44° 98° (E) 18:34:40 437.345
CUTE-I 23 Jul 18:29:26 18:34:48 73° 71° (ENE) 18:40:11 437.470
NOAA 18 23 Jul 18:30:35 18:36:07 77° 71° (ENE) 18:41:41 137.9125
Cosmos 2499 23 Jul 18:41:41 18:49:48 38° 295° (WNW) 18:57:46 435.465 / 435.565
CINEMA 3 23 Jul 18:49:49 18:52:33 16° 56° (NE) 18:55:20 145.822/145.860
KKS-1 23 Jul 18:51:01 18:54:25 21° 300° (WNW) 18:57:49 437.445
MOZHAYETS 4 23 Jul 18:55:50 18:59:04 19° 301° (WNW) 19:02:17
SO-50 23 Jul 18:56:13 19:00:32 37° 240° (WSW) 19:04:42 436.795
NOAA 15 23 Jul 19:03:38 19:08:42 48° 261° (W) 19:13:47 137.62
GONETS M04 23 Jul 19:06:07 19:12:47 24° 305° (NW) 19:19:32
HO-68 23 Jul 19:06:24 19:12:50 37° 57° (ENE) 19:19:15 435.675
SEEDS 23 Jul 19:06:45 19:08:31 12° 56° (ENE) 19:10:17 437.485
YUBILEINY 23 Jul 19:11:22 19:15:42 14° 42° (NE) 19:20:00 435.215
COMPASS 1 23 Jul 19:25:51 19:27:55 14° 58° (ENE) 19:30:01 437.405
AO-85 23 Jul 19:27:15 19:30:17 16° 348° (NNW) 19:33:11 145.980
GOMX 1 23 Jul 19:30:48 19:34:45 42° 262° (W) 19:38:52 467.674
CANX-2 23 Jul 19:38:52 19:42:44 34° 67° (ENE) 19:46:37 2200.000
STARS 23 Jul 19:41:42 19:44:06 14° 304° (NW) 19:46:30 437.465
DOVE 4 23 Jul 19:43:49 19:48:03 68° 258° (WSW) 19:52:33 437.250
Cubesat XI-IV 23 Jul 19:45:22 19:50:05 31° 266° (W) 19:54:51 437.490
BRITE-PL 23 Jul 19:48:06 19:50:27 15° 271° (W) 19:52:49 437.365/2234.400
CUTE 1.7 + AOD 2 23 Jul 19:52:56 19:56:57 41° 69° (ENE) 20:00:58 437.475
LilacSat-2 23 Jul 19:53:25 19:56:05 18° 269° (W) 19:58:47 437.200
STRAND 1 23 Jul 19:54:17 19:58:30 25° 92° (E) 20:02:40 437.568
AAUSAT CUBESAT 2 23 Jul 19:57:00 20:00:08 21° 62° (ENE) 20:03:15 437.432
CUBESAT XI-V 23 Jul 20:03:39 20:07:29 27° 297° (WNW) 20:11:19 437.345
RS-15 23 Jul 20:08:07 20:14:15 16° 268° (W) 20:20:22 29.354- 29.394
UWE-3 23 Jul 20:09:54 20:13:18 21° 60° (ENE) 20:16:45 435.000/436.395/437.385
CUTE-I 23 Jul 20:11:34 20:15:25 20° 271° (W) 20:19:16 437.470
NOAA 18 23 Jul 20:13:32 20:17:24 19° 271° (W) 20:21:19 137.9125
PCSat 23 Jul 20:16:10 20:20:20 23° 109° (ESE) 20:24:31 145.827
M-CUBED/EXP-1 PRIME 23 Jul 20:19:01 20:20:43 13° 48° (NE) 20:22:29 437.505
ZACube-1 23 Jul 20:20:05 20:23:10 18° 59° (ENE) 20:26:15 437.345
PHONESAT 2.4 23 Jul 20:20:10 20:20:42 10° 165° (SSE) 20:21:14 2401.200-2431.200
FUNcube-1 23 Jul 20:21:31 20:24:31 18° 58° (ENE) 20:27:33 145.935
CUBEBUG 2 23 Jul 20:22:28 20:26:36 35° 66° (ENE) 20:30:53 437.445
CINEMA 3 23 Jul 20:24:30 20:29:00 85° 258° (WSW) 20:33:45 145.822/145.860
BEESAT 2 23 Jul 20:29:34 20:32:53 26° 118° (ESE) 20:36:15 435.950
BEESAT 3 23 Jul 20:31:03 20:34:48 46° 123° (ESE) 20:38:36 437.485
SEEDS 23 Jul 20:39:19 20:43:34 85° 71° (ENE) 20:47:49 437.485
Cosmos 2491 23 Jul 20:43:06 20:47:06 14° 69° (ENE) 20:51:05 435.465 / 435.565
Cosmos 2499 23 Jul 20:44:11 20:46:04 11° 322° (NW) 20:47:57 435.465 / 435.565
AUBIESAT-1 23 Jul 20:47:24 20:50:08 18° 52° (NE) 20:53:00 437.475
HO-68 23 Jul 20:53:11 21:00:15 60° 258° (WSW) 21:07:24 435.675
DELFI C3 23 Jul 20:54:13 20:56:39 16° 60° (ENE) 20:59:05 145.870
COMPASS 1 23 Jul 20:58:42 21:02:54 85° 260° (W) 21:07:06 437.405
YUBILEINY 23 Jul 21:06:42 21:15:16 49° 70° (ENE) 21:23:45 435.215
Oscar 11 23 Jul 21:08:14 21:12:23 44° 69° (ENE) 21:16:32 145.826/435.025
AO-85 23 Jul 21:09:40 21:12:37 16° 13° (NNE) 21:15:27 145.980
CANX-2 23 Jul 21:14:52 21:18:38 29° 266° (W) 21:22:24 2200.000
O/OREOS (USA 219) 23 Jul 21:25:15 21:28:28 20° 102° (ESE) 21:31:42 437.305
CUTE 1.7 + AOD 2 23 Jul 21:29:26 21:32:57 24° 267° (W) 21:36:28 437.475
Cosmos 2504 23 Jul 21:30:04 21:36:59 27° 57° (ENE) 21:43:30 435.465 / 435.565
AAUSAT CUBESAT 2 23 Jul 21:31:17 21:35:20 49° 261° (W) 21:39:23 437.432
PRISM 23 Jul 21:32:08 21:35:41 28° 96° (E) 21:39:15 437.425
STRAND 1 23 Jul 21:33:00 21:37:59 53° 292° (WNW) 21:42:56 437.568
UWE-3 23 Jul 21:44:50 21:49:21 61° 259° (W) 21:53:59 435.000/436.395/437.385
M-CUBED/EXP-1 PRIME 23 Jul 21:50:46 21:54:30 82° 69° (ENE) 21:58:37 437.505
ZACube-1 23 Jul 21:54:24 21:58:56 71° 258° (WSW) 22:03:32 437.345
PHONESAT 2.4 23 Jul 21:54:42 21:56:26 14° 181° (S) 21:58:10 2401.200-2431.200
FUNcube-1 23 Jul 21:55:43 22:00:14 73° 258° (WSW) 22:04:50 145.935
PCSat 23 Jul 21:57:49 22:03:14 71° 309° (NW) 22:08:42 145.827
AIST 2 23 Jul 21:58:26 22:00:25 13° 110° (ESE) 22:02:23 435.215
CUBEBUG 2 23 Jul 21:59:06 22:03:14 33° 265° (W) 22:07:30 437.445
CINEMA 3 23 Jul 22:05:26 22:06:59 11° 276° (W) 22:08:33 145.822/145.860
BEESAT 2 23 Jul 22:06:43 22:10:33 45° 317° (NW) 22:14:25 435.950
HUMSAT D 23 Jul 22:08:05 22:12:09 43° 69° (ENE) 22:16:15 437.325/437.525
BEESAT 3 23 Jul 22:09:09 22:12:38 29° 323° (NW) 22:16:10 437.485
SEEDS 23 Jul 22:18:20 22:19:52 12° 274° (W) 22:21:24 437.485
AUBIESAT-1 23 Jul 22:20:25 22:24:09 60° 253° (WSW) 22:28:14 437.475
DELFI C3 23 Jul 22:27:07 22:31:04 64° 258° (WSW) 22:35:03 145.870
CUBEBUG 1 23 Jul 22:29:11 22:30:55 12° 55° (NE) 22:32:40 437.445
Cosmos 2491 23 Jul 22:33:31 22:42:01 61° 92° (E) 22:50:33 435.465 / 435.565
Oscar 11 23 Jul 22:45:14 22:48:43 23° 268° (W) 22:52:13 145.826/435.025
HO-68 23 Jul 22:46:55 22:49:33 12° 279° (W) 22:52:12 435.675
TIGRISAT 23 Jul 22:48:05 22:51:28 19° 90° (E) 22:54:46 435.000
AO-85 23 Jul 22:50:04 22:54:25 37° 37° (NE) 22:58:25 145.980
AISAT 23 Jul 23:00:00 23:03:20 22° 61° (ENE) 23:06:41 437.250
UNISAT 6 23 Jul 23:02:42 23:06:43 27° 93° (E) 23:10:38 437.425
O/OREOS (USA 219) 23 Jul 23:03:04 23:07:28 57° 302° (WNW) 23:11:55 437.305
YUBILEINY 23 Jul 23:03:47 23:12:06 47° 273° (W) 23:20:21 435.215
PRISM 23 Jul 23:07:22 23:11:02 32° 294° (WNW) 23:14:42 437.425
ISS 23 Jul 23:08:46 23:10:24 13° 138° (SE) 23:12:04 145.825
DX 1 23 Jul 23:13:38 23:16:54 21° 61° (ENE) 23:20:11 434.975-435.025
STRAND 1 23 Jul 23:14:56 23:16:04 11° 312° (NW) 23:17:12 437.568
ESTCUBE 1 23 Jul 23:17:38 23:21:54 44° 69° (ENE) 23:26:11 437.505/2401.250
50 SAT 23 Jul 23:19:28 23:22:32 26° 66° (ENE) 23:25:38 437.505
Cosmos 2504 23 Jul 23:23:05 23:31:34 84° 263° (W) 23:39:23 435.465 / 435.565
M-CUBED/EXP-1 PRIME 23 Jul 23:28:39 23:29:44 11° 269° (W) 23:30:51 437.505
AIST 2 23 Jul 23:34:08 23:38:15 89° 297° (WNW) 23:42:26 435.215
UKube-1 23 Jul 23:34:20 23:37:54 26° 63° (ENE) 23:41:30 .
ANTELSAT 23 Jul 23:40:59 23:45:38 59° 100° (E) 23:50:12 437.575/2403.000
PCSat 23 Jul 23:43:25 23:47:36 22° 332° (NNW) 23:51:48 145.827
HUMSAT D 23 Jul 23:44:28 23:47:58 24° 268° (W) 23:51:28 437.325/437.525
BEESAT 2 23 Jul 23:47:10 23:49:21 14° 339° (NNW) 23:51:33 435.950
QB50P1 23 Jul 23:48:38 23:50:48 14° 88° (E) 23:52:58 145.935-145.965
BEESAT 3 23 Jul 23:50:09 23:51:34 12° 346° (NNW) 23:52:58 437.485
VELOX 1 23 Jul 23:50:45 23:55:02 57° 71° (ENE) 23:59:22 145.980
POPSAT HIP 1 23 Jul 23:54:24 23:56:58 15° 89° (E) 23:59:31 437.405
CUBEBUG 1 24 Jul 00:02:11 00:06:30 80° 74° (ENE) 00:10:51 437.445
AIST 1 24 Jul 00:04:26 00:06:35 13° 62° (ENE) 00:08:45
QB50P2 24 Jul 00:13:35 00:17:09 25° 93° (E) 00:20:40 145.880/145.840
SPROUT 24 Jul 00:14:35 00:18:41 47° 70° (ENE) 00:22:50 437.525
POLYITAN 1 24 Jul 00:16:12 00:19:48 25° 93° (E) 00:23:22 437.675
TIGRISAT 24 Jul 00:23:54 00:28:33 60° 289° (WNW) 00:33:06 435.000
AO-85 24 Jul 00:30:43 00:34:56 40° 240° (WSW) 00:38:49 145.980
Cosmos 2491 24 Jul 00:31:25 00:39:22 38° 295° (WNW) 00:47:22 435.465 / 435.565
AISAT 24 Jul 00:35:13 00:39:30 52° 259° (W) 00:43:50 437.250
UNISAT 6 24 Jul 00:39:08 00:43:34 42° 293° (WNW) 00:47:56 437.425
ISS 24 Jul 00:43:06 00:46:18 57° 156° (SSE) 00:49:31 145.825
O/OREOS (USA 219) 24 Jul 00:46:01 00:47:54 12° 323° (NW) 00:49:47 437.305
JAS-2 24 Jul 00:47:46 00:51:23 19° 90° (E) 00:55:06 435.910
DX 1 24 Jul 00:48:33 00:52:46 52° 259° (W) 00:57:03 434.975-435.025
50 SAT 24 Jul 00:52:53 00:56:08 29° 264° (W) 00:59:23 437.505
ESTCUBE 1 24 Jul 00:55:15 00:58:54 24° 267° (W) 01:02:35 437.505/2401.250
NANOSAT C BR1 24 Jul 01:02:38 01:06:55 66° 102° (ESE) 01:11:10 145.865
DUCHIFAT 1 24 Jul 01:08:49 01:13:07 72° 103° (ESE) 01:17:22 145.980
UKube-1 24 Jul 01:09:45 01:13:48 40° 261° (W) 01:17:53 .
SWISSCUBE 24 Jul 01:13:05 01:16:09 17° 56° (NE) 01:19:14 437.505
AIST 2 24 Jul 01:14:09 01:17:19 21° 331° (NNW) 01:20:31 435.215
GONETS M04 24 Jul 01:14:16 01:19:59 18° 49° (NE) 01:25:43
Cosmos 2504 24 Jul 01:17:57 01:23:36 21° 286° (WNW) 01:29:00 435.465 / 435.565
ANTELSAT 24 Jul 01:18:25 01:21:58 22° 300° (WNW) 01:25:27 437.575/2403.000
QB50P1 24 Jul 01:22:48 01:27:07 76° 288° (WNW) 01:31:24 145.935-145.965
TISAT 1 24 Jul 01:23:56 01:28:04 64° 72° (ENE) 01:32:16 437.305
BEESAT 2 24 Jul 01:28:39 01:28:53 10° 4° (N) 01:29:07 435.950
VELOX 1 24 Jul 01:28:48 01:31:53 19° 269° (W) 01:34:59 145.980
POPSAT HIP 1 24 Jul 01:28:55 01:33:13 67° 287° (WNW) 01:37:28 437.405
BEESAT 3 24 Jul 01:29:59 01:30:58 11° 10° (N) 01:31:58 437.485
PCSat 24 Jul 01:30:33 01:33:06 13° 358° (N) 01:35:40 145.827
BEESAT 24 Jul 01:34:06 01:37:48 23° 60° (ENE) 01:41:31 436.000
BUGSAT 1 24 Jul 01:39:14 01:43:29 70° 103° (ESE) 01:47:44 437.445
AIST 1 24 Jul 01:40:28 01:44:49 82° 263° (W) 01:49:10
CUBEBUG 1 24 Jul 01:41:26 01:43:23 13° 273° (W) 01:45:20 437.445
QB50P2 24 Jul 01:49:03 01:53:07 41° 292° (WNW) 01:57:08 145.880/145.840
SPROUT 24 Jul 01:51:37 01:54:53 21° 268° (W) 01:58:12 437.525
POLYITAN 1 24 Jul 01:51:42 01:55:45 40° 292° (WNW) 01:59:47 437.675
ITUPSAT 1 24 Jul 01:54:00 01:58:14 32° 64° (ENE) 02:02:29 437.325
TIGRISAT 24 Jul 02:03:12 02:04:17 11° 308° (NW) 02:05:23 435.000
ISS 24 Jul 02:19:30 02:22:45 66° 354° (N) 02:26:00 145.825
Oscar 19 24 Jul 02:23:47 02:28:33 37° 96° (E) 02:33:19 437.125/150
JAS-2 24 Jul 02:31:53 02:37:04 70° 289° (WNW) 02:42:29 435.910
Cosmos 2499 24 Jul 02:33:58 02:41:05 31° 61° (ENE) 02:47:42 435.465 / 435.565
Cosmos 2491 24 Jul 02:37:59 02:39:35 11° 324° (NW) 02:41:11 435.465 / 435.565
NANOSAT C BR1 24 Jul 02:39:23 02:42:12 17° 301° (WNW) 02:45:01 145.865
KKS-1 24 Jul 02:42:15 02:44:34 14° 55° (NE) 02:46:53 437.445
DUCHIFAT 1 24 Jul 02:45:40 02:48:19 16° 302° (WNW) 02:50:57 145.980
SWISSCUBE 24 Jul 02:48:33 02:53:22 82° 255° (WSW) 02:58:11 437.505
MOZHAYETS 4 24 Jul 02:48:56 02:51:51 17° 58° (ENE) 02:54:46
AIST 2 24 Jul 02:56:09 02:57:20 11° 355° (N) 02:58:31 435.215
QB50P1 24 Jul 03:00:41 03:02:10 12° 305° (NW) 03:03:37 145.935-145.965
TISAT 1 24 Jul 03:01:38 03:04:10 15° 271° (W) 03:06:43 437.305
BEESAT 2 24 Jul 03:05:24 03:08:16 18° 28° (NNE) 03:11:07 435.950
BEESAT 3 24 Jul 03:06:41 03:10:00 24° 34° (NNE) 03:13:18 437.485
POPSAT HIP 1 24 Jul 03:07:21 03:08:10 10° 307° (NW) 03:09:00 437.405
AO-7 24 Jul 03:10:03 03:12:28 11° 80° (E) 03:14:53 29.400- 29.500
GONETS M04 24 Jul 03:10:09 03:18:55 65° 75° (ENE) 03:27:40
BEESAT 24 Jul 03:10:31 03:15:15 58° 259° (WSW) 03:20:00 436.000
Gurwin Techsat 1B 24 Jul 03:13:58 03:19:07 47° 99° (E) 03:24:14 435.225
PCSat 24 Jul 03:14:54 03:18:45 19° 24° (NNE) 03:22:34 145.827
BUGSAT 1 24 Jul 03:15:43 03:18:24 17° 301° (WNW) 03:21:05 437.445
STARS 24 Jul 03:30:01 03:33:12 20° 60° (ENE) 03:36:25 437.465
ITUPSAT 1 24 Jul 03:31:30 03:36:00 39° 262° (W) 03:40:32 437.325
